Flag Weather past 2 weeks in Ilmenau, Thuringia, Germany

Now
37 °F

Scattered clouds.


Feels Like: 37 °F
Forecast: 38 / 49 °F
Wind: 2 mph from North

Location: Erfurt-Bindersleben

Current Time: Nov 22, 2014 at 2:31:33 PM

Latest Report: Nov 22, 2014 at 1:50 PM


Visibility: 1 mi

Pressure: 30.15 "Hg

Humidity: 100%

Dew point: 37 °F

Location of IlmenauLocation

Historic Weather in Ilmenau — Graph

°F

Ilmenau temperature yesterday

Maximum temperature yesterday: 41 °F (at 11:20 AM)
Minimum temperature yesterday: 39 °F (at 12:20 AM)
Average temperature yesterday: 40 °F

Past Weeks' High & Low Weather Summary

 TemperatureHumidityPressure
High54 °F (Nov 14, 1:50 PM)100% (Nov 9, 3:50 AM)30.33 "Hg (Nov 9, 3:50 AM)
Low32 °F (Nov 22, 4:20 AM)67% (Nov 8, 2:50 PM)29.50 "Hg (Nov 16, 4:20 AM)
Average43 °F95%29.88 "Hg
* Reported Nov 7 1:20 PM — Nov 22 1:20 PM, Ilmenau, Weather by CustomWeather, © 2014

Note: Actual official high and low records may vary slightly from our data, if they occured in-between our weather recording intervals... More about our weather records

Advertising

Ilmenau weather history for previous 24 hours

 ConditionsComfort  
Time TempWeatherWind HumidityBarometerVisibility
1:20 PM
Nov 22
37 °FBroken clouds.6 mph100%30.15 "Hg1 mi
12:50 PM39 °FPartly sunny.5 mph93%30.18 "Hg5 mi
12:20 PM37 °FChilly.3 mph100%30.18 "Hg4 mi
11:50 AM37 °FChilly.3 mph100%30.18 "Hg2 mi
11:20 AM36 °FChilly.2 mph100%30.18 "Hg1 mi
10:50 AM36 °FFog.5 mph100%30.18 "Hg0 mi
10:20 AM36 °FChilly.5 mph100%30.18 "Hg1 mi
9:50 AM37 °FChilly.2 mph100%30.18 "Hg4 mi
9:20 AM36 °FClear.5 mph100%30.15 "Hg4 mi
8:50 AM34 °FFog.8 mph100%30.15 "Hg3 mi
8:20 AM32 °FChilly.7 mph100%30.15 "Hg2 mi
7:50 AM32 °FChilly.6 mph100%30.15 "Hg1 mi
7:20 AM32 °FChilly.9 mph100%30.15 "Hg1 mi
6:50 AM32 °FChilly.6 mph100%30.15 "Hg0 mi
6:20 AM32 °FIce fog.10 mph100%30.15 "Hg0 mi
5:50 AM32 °FIce fog.9 mph100%30.15 "Hg0 mi
5:20 AM32 °FSnow. Overcast.7 mph100%30.15 "Hg2 mi
4:50 AM32 °FLight fog.1 mph100%30.15 "Hg5 mi
4:20 AM32 °FSnow. Light fog.5 mph100%30.15 "HgN/A
3:50 AM36 °FClear.3 mph93%30.15 "Hg10 mi
3:20 AM36 °FClear.3 mph93%30.18 "Hg10 mi
2:50 AM36 °FClear.3 mph93%30.18 "Hg10 mi
2:20 AM36 °FClear.6 mph93%30.18 "Hg10 mi
1:50 AM37 °FPassing clouds.5 mph93%30.18 "HgN/A
1:20 AM37 °FPassing clouds.5 mph93%30.18 "HgN/A
12:50 AM39 °FOvercast.3 mph87%30.18 "HgN/A
12:20 AM39 °FOvercast.5 mph93%30.18 "HgN/A
11:50 PM
Nov 21
39 °FOvercast.6 mph93%30.21 "HgN/A
11:20 PM39 °FOvercast.5 mph93%30.21 "HgN/A
10:20 PM39 °FOvercast.3 mph93%30.21 "HgN/A
9:50 PM39 °FOvercast.3 mph93%30.21 "HgN/A
9:20 PM39 °FOvercast.5 mph93%30.21 "HgN/A
8:50 PM39 °FOvercast.5 mph93%30.21 "HgN/A
8:20 PM39 °FOvercast.5 mph93%30.21 "HgN/A
7:50 PM39 °FOvercast.5 mph93%30.21 "HgN/A
7:20 PM39 °FOvercast.3 mph93%30.21 "HgN/A
6:50 PM39 °FOvercast.5 mph93%30.21 "HgN/A
6:20 PM39 °FOvercast.5 mph93%30.21 "HgN/A
5:50 PM39 °FOvercast.5 mph100%30.21 "HgN/A
5:20 PM39 °FOvercast.6 mph100%30.21 "HgN/A
4:20 PM39 °FOvercast.8 mph93%30.21 "HgN/A
3:50 PM39 °FOvercast.8 mph100%30.21 "HgN/A
3:20 PM41 °FOvercast.9 mph87%30.21 "HgN/A
2:50 PM41 °FOvercast.8 mph93%30.21 "HgN/A
2:20 PM41 °FOvercast.8 mph93%30.21 "HgN/A
Weather by CustomWeather, © 2014

See weather overviewHow to use our weather pages